Location: Ocean City
(38.3360°N, 75.0850°W)
Time: 07:46:08
(UTC-05:00)

Explorer 11/Cluster Stage 4 - Pass Details

Date: 15 November 2019
Orbit: 467 x 1259 km, 28.8° (Epoch: 07 December)

Event Time Altitude Azimuth Distance (km) Brightness Sun altitude
Rises 02:13:02 0° 265° (W) 4,159 - -52.2°
Reaches altitude 10° 02:16:28 10° 253° (WSW) 3,225 - -51.6°
Maximum altitude 02:22:53 26° 202° (SSW) 2,253 - -50.4°
Drops below altitude 10° 02:29:06 10° 151° (SSE) 3,107 - -49.2°
Exits shadow 02:31:28 - 141° (SE) 3,730 10.2 -48.8°
Sets 02:32:21 0° 139° (SE) 3,979 10.4 -48.6°
